[[{"header":{"parameterUnit":"m.s-1","parameterCategory":1,"la1":30.2991,"la2":30.254,"lo1":-89.0895,"lo2":-89.0444,"dy":0.0017,"dx":0.0017,"nx":28,"ny":28,"refTime":"2024-05-09T09:00:00:Z","depth":0,"parameterNumber":2,"parameterNumberName":"U-component_of_WINDS"},"data":[0,0,0,0,0,0,0,0,0,0,0,0,0,0,0,0,0,0,0,0,0,0,0,0,0,0,0,0,0,0,0,0,0,0,0,0,0,0,0,0,0,0,0,0,0,0,0,0,0,0,0,0,0,0,0,0,0,0,2.0294,2.0295,0,2.036,2.0361,2.0362,2.0432,2.0433,2.0434,2.0435,2.0501,2.0502,2.0503,0,0,0,0,0,0,0,0,0,0,0,0,0,2.0229,2.0229,2.0294,2.0295,2.0296,2.036,2.0361,2.0362,2.0432,2.0433,2.0434,2.0435,2.0501,2.0502,2.0503,0,0,0,0,0,0,0,0,0,0,0,0,0,2.0272,2.023,2.0294,2.0338,2.0343,2.036,2.0361,2.0362,2.0431,2.0433,2.0434,2.0436,2.05,2.0502,2.0503,2.0481,0,0,2.0507,2.0507,0,0,0,0,0,0,0,0,2.027,2.0274,2.0331,2.0335,2.0341,2.0389,2.0362,2.0402,2.0431,2.0398,2.0435,2.0436,2.0463,2.0467,2.0476,2.0484,2.0487,2.0507,2.0508,2.0508,2.0509,0,0,0,0,0,0,0,2.0266,2.0272,2.032,2.0332,2.0338,2.0355,2.0363,2.037,2.0421,2.0401,2.0406,2.0413,2.0465,2.0475,2.0478,2.0488,2.0507,2.0508,2.0509,2.0509,2.0483,2.0482,0,0,0,0,0,0,2.0257,2.0269,2.0318,2.0322,2.0308,2.0355,2.0364,2.0372,2.0421,2.043,2.0412,2.0416,2.0472,2.0477,2.0481,2.0459,2.0508,2.0509,2.051,2.0485,2.0483,2.0481,0,0,0,0,0,0,2.0255,2.026,2.0316,2.0297,2.0306,2.0355,2.0364,2.0373,2.0382,2.0429,2.0439,2.0412,2.0473,2.0479,2.0481,2.0463,2.051,2.0511,2.0487,2.0484,2.0482,2.0415,0,0,0,0,0,0,2.0253,2.0259,2.0251,2.0296,2.0306,2.0314,2.0362,2.0373,2.0384,2.0391,2.0432,2.044,2.0475,2.0479,2.0482,2.0465,2.0512,2.0488,2.0486,2.0483,2.0419,2.0411,2.0404,0,0,0,0,0,2.025,2.0229,2.0251,2.0256,2.0297,2.0313,2.0319,2.0359,2.0382,2.0375,2.0406,2.0439,2.0464,2.0478,2.0483,2.0466,2.049,2.0486,2.0483,2.0423,2.0413,2.0404,0,0,0,0,0,0,2.018,2.0236,2.026,2.0253,2.0278,2.0325,2.0316,2.0347,2.0365,2.037,2.042,2.0429,2.0425,2.0446,2.0461,2.0448,2.0482,2.0479,2.0434,2.0425,2.0418,2.0412,2.0513,0,0,0,0,0,2.0163,2.0172,2.0221,2.021,2.0221,2.0266,2.0275,2.0304,2.0332,2.0342,2.0373,2.0398,2.0412,2.042,2.0435,2.0423,2.0434,2.0414,2.0407,2.04,2.0397,2.0393,2.0385,2.0471,2.0471,2.0471,0,0,2.013,2.0161,2.0163,2.0196,2.0219,2.0227,2.0275,2.028,2.0287,2.0343,2.0347,2.0371,2.0402,2.0397,2.0397,2.0415,2.0376,2.0396,2.039,2.0391,2.0389,2.0381,2.0374,2.0469,2.0469,2.0469,0,0,2.0072,2.0097,2.0091,2.0113,2.0147,2.0178,2.0177,2.022,2.0238,2.0243,2.0286,2.0294,2.0317,2.0338,2.0351,2.0304,2.0335,2.0308,2.0267,2.0263,2.0256,2.025,2.0234,2.0227,2.0305,2.0305,2.0304,0,2.0025,2.0038,2.0084,2.0087,2.0101,2.0154,2.0149,2.0168,2.0205,2.0213,2.0233,2.0264,2.0289,2.029,2.0279,2.0288,2.0288,2.0302,2.0254,2.0248,2.0244,2.0228,2.0222,2.0301,2.0301,2.0302,2.0302,0,1.998,1.9989,1.998,2.0015,2.0028,2.0027,2.0072,2.008,2.0109,2.0138,2.0143,2.0175,2.0198,2.0201,2.0229,2.0207,2.0217,2.0245,2.0279,2.0231,2.0217,2.0212,2.0296,2.0297,2.0298,2.0299,0,0,1.9877,1.994,1.9935,1.9953,1.9996,2.0003,2.0005,2.0029,2.0035,2.0059,2.0062,2.0081,2.0108,2.0123,2.0154,2.0151,2.0112,2.0179,2.0181,2.0165,2.009,2.0068,2.006,2.0133,2.0133,2.0132,2.0087,0,1.9827,1.9833,1.9875,1.987,1.9879,1.9931,1.9933,1.9959,1.9987,1.9999,2.003,2.0042,2.0076,2.0086,2.0085,2.0116,2.0097,2.012,2.0136,2.0136,2.0126,2.0053,2.003,1.9986,2.0082,2.0081,2.008,0,1.9768,1.979,1.9785,1.983,1.9835,1.9836,1.9862,1.9873,1.9904,1.9925,1.9943,1.9979,1.9984,2.0018,2.0026,2.0041,2.0051,2.0067,2.0067,2.0069,2.0104,2.0053,1.9973,1.9966,2.0072,2.0073,2.0074,0,1.9693,1.9722,1.9724,1.9737,1.9788,1.9788,1.9809,1.9843,1.9855,1.9878,1.9886,1.9909,1.9921,1.9938,1.9979,1.9999,1.9983,2.002,2.0,1.9999,1.9993,1.9992,1.9913,2.0,2.0,2.0,2.0001,0,1.9632,1.9627,1.9691,1.9691,1.9688,1.9737,1.9733,1.9759,1.9789,1.9796,1.9842,1.9848,1.9902,1.9914,1.9946,1.9949,1.9954,1.9971,1.9979,1.9966,1.9964,1.9972,1.9975,1.9999,1.9999,1.9999,2.0,0,1.9547,1.959,1.9595,1.9644,1.9656,1.9652,1.9694,1.9697,1.9728,1.9737,1.9742,1.9791,1.9807,1.985,1.9878,1.99,1.9893,1.9909,1.9882,1.9888,1.9865,1.9867,1.9787,1.9779,1.9872,1.9871,1.987,0,1.9504,1.9502,1.9552,1.956,1.958,1.9593,1.9606,1.9655,1.9666,1.9703,1.9702,1.9723,1.9741,1.9766,1.9804,1.9826,1.9842,1.9813,1.9846,1.9833,1.9841,1.984,1.9841,1.9805,1.9804,1.9803,1.9802,0,1.9424,1.9446,1.9463,1.9488,1.9503,1.9524,1.9549,1.9553,1.9608,1.9618,1.9637,1.9651,1.9681,1.97,1.9729,1.9751,1.9785,1.9792,1.9788,1.9774,1.9758,1.9766,1.9862,1.9793,1.9794,1.9795,1.9795,1.9795,1.9359,1.936,1.9396,1.9414,1.9437,1.9459,1.9465,1.9498,1.9514,1.9542,1.957,1.9585,1.9619,1.966,1.968,1.9693,1.9711,1.9706,1.9704,1.9702,1.9696,1.9758,1.9698,1.9699,1.9699,1.9699,1.97,0,1.9281,1.9307,1.9323,1.9357,1.9371,1.9404,1.9433,1.9442,1.9455,1.9484,1.9502,1.9524,1.9544,1.9584,1.9608,1.961,1.9627,1.9615,1.9614,1.9619,1.9679,1.9679,1.9601,1.9601,1.9601,1.9601,1.9601,1.9601,1.9242,1.9246,1.9272,1.9288,1.9314,1.933,1.9344,1.9365,1.9388,1.941,1.9427,1.9454,1.9487,1.9514,1.9534,1.9546,1.9552,1.9535,1.9551,1.9606,1.9615,1.9624,1.9624,1.9536,1.9536,1.949,1.949,1.949]},{"header":{"parameterUnit":"m.s-1","parameterCategory":1,"la1":30.2991,"la2":30.254,"lo1":-89.0895,"lo2":-89.0444,"dy":0.0017,"dx":0.0017,"nx":28,"ny":28,"refTime":"2024-05-09T09:00:00:Z","depth":0,"parameterNumber":3,"parameterNumberName":"V-component_of_WINDS"},"data":[0,0,0,0,0,0,0,0,0,0,0,0,0,0,0,0,0,0,0,0,0,0,0,0,0,0,0,0,0,0,0,0,0,0,0,0,0,0,0,0,0,0,0,0,0,0,0,0,0,0,0,0,0,0,0,0,0,0,-0.7403,-0.7403,0,-0.7398,-0.7398,-0.7397,-0.7367,-0.7366,-0.7365,-0.7365,-0.7362,-0.7363,-0.7363,0,0,0,0,0,0,0,0,0,0,0,0,0,-0.7392,-0.7392,-0.7403,-0.7403,-0.7402,-0.7398,-0.7398,-0.7397,-0.7367,-0.7366,-0.7365,-0.7364,-0.7362,-0.7363,-0.7363,0,0,0,0,0,0,0,0,0,0,0,0,0,-0.7393,-0.7392,-0.7403,-0.7387,-0.7385,-0.7398,-0.7398,-0.7397,-0.7367,-0.7366,-0.7365,-0.7364,-0.7362,-0.7363,-0.7364,-0.7392,0,0,-0.7366,-0.7367,0,0,0,0,0,0,0,0,-0.7393,-0.7393,-0.7389,-0.7388,-0.7386,-0.7382,-0.7393,-0.7396,-0.7367,-0.7374,-0.7365,-0.7363,-0.737,-0.737,-0.7372,-0.7392,-0.7392,-0.7367,-0.7367,-0.7368,-0.7368,0,0,0,0,0,0,0,-0.7393,-0.7393,-0.7401,-0.7389,-0.7387,-0.7382,-0.7381,-0.7393,-0.7378,-0.7373,-0.7371,-0.7371,-0.7369,-0.7371,-0.7371,-0.7392,-0.7367,-0.7367,-0.7368,-0.7368,-0.7441,-0.7442,0,0,0,0,0,0,-0.7394,-0.7393,-0.7401,-0.7401,-0.7387,-0.7383,-0.7381,-0.7384,-0.7378,-0.7376,-0.7372,-0.7369,-0.737,-0.737,-0.7371,-0.7408,-0.7368,-0.7368,-0.7369,-0.7439,-0.7441,-0.7442,0,0,0,0,0,0,-0.7394,-0.7395,-0.7401,-0.7396,-0.7397,-0.7384,-0.7387,-0.7385,-0.7387,-0.7377,-0.7374,-0.7376,-0.7369,-0.737,-0.7388,-0.7407,-0.7369,-0.737,-0.7438,-0.744,-0.7442,-0.7479,0,0,0,0,0,0,-0.7394,-0.7395,-0.7404,-0.7397,-0.7397,-0.7416,-0.7388,-0.7385,-0.7388,-0.7385,-0.738,-0.7379,-0.7368,-0.7387,-0.7389,-0.7408,-0.737,-0.7436,-0.7439,-0.7441,-0.7476,-0.7482,-0.7487,0,0,0,0,0,-0.7393,-0.7414,-0.7405,-0.7406,-0.7408,-0.7417,-0.7418,-0.7404,-0.7389,-0.74,-0.7395,-0.7379,-0.7404,-0.7389,-0.7391,-0.741,-0.7435,-0.7438,-0.7441,-0.7473,-0.7481,-0.7487,0,0,0,0,0,0,-0.7424,-0.7413,-0.7402,-0.742,-0.742,-0.7412,-0.7424,-0.7412,-0.7416,-0.7413,-0.7397,-0.7397,-0.7418,-0.7416,-0.7399,-0.744,-0.7417,-0.7421,-0.7441,-0.7448,-0.7453,-0.7455,-0.7371,0,0,0,0,0,-0.7433,-0.744,-0.743,-0.7448,-0.7448,-0.7437,-0.744,-0.743,-0.743,-0.743,-0.7425,-0.7426,-0.7435,-0.7441,-0.7448,-0.7475,-0.7476,-0.749,-0.7495,-0.75,-0.7504,-0.7523,-0.7531,-0.7452,-0.7452,-0.7452,0,0,-0.7451,-0.7446,-0.7451,-0.7454,-0.7452,-0.7463,-0.7437,-0.7447,-0.7456,-0.7431,-0.7449,-0.7447,-0.7447,-0.7471,-0.7481,-0.747,-0.7526,-0.7504,-0.7508,-0.7509,-0.7527,-0.7535,-0.7541,-0.7454,-0.7454,-0.7454,0,0,-0.7491,-0.7486,-0.7502,-0.7502,-0.75,-0.7493,-0.7497,-0.7492,-0.749,-0.7507,-0.749,-0.7501,-0.7515,-0.7517,-0.7521,-0.7566,-0.7554,-0.7569,-0.7599,-0.7617,-0.7624,-0.7629,-0.765,-0.7657,-0.7572,-0.7572,-0.7573,0,-0.7514,-0.7527,-0.7512,-0.7526,-0.7529,-0.7508,-0.7526,-0.7527,-0.7528,-0.7532,-0.7519,-0.754,-0.7538,-0.7565,-0.7576,-0.7578,-0.7585,-0.757,-0.7624,-0.7629,-0.7634,-0.7653,-0.7661,-0.7575,-0.7574,-0.7574,-0.7574,0,-0.7558,-0.7569,-0.7582,-0.7585,-0.759,-0.7606,-0.7595,-0.7603,-0.7593,-0.7589,-0.761,-0.7607,-0.7616,-0.7621,-0.7611,-0.7648,-0.7642,-0.7626,-0.7603,-0.7644,-0.7662,-0.7669,-0.7578,-0.7577,-0.7576,-0.7576,0,0,-0.7615,-0.7612,-0.7617,-0.7621,-0.7619,-0.7628,-0.7645,-0.7653,-0.7662,-0.7664,-0.7681,-0.7695,-0.7682,-0.7686,-0.7677,-0.7693,-0.7735,-0.7676,-0.7676,-0.7691,-0.7781,-0.7795,-0.7804,-0.7726,-0.7727,-0.7728,-0.7783,0,-0.7656,-0.7683,-0.7672,-0.7702,-0.7714,-0.7695,-0.7711,-0.7713,-0.771,-0.7722,-0.7719,-0.7731,-0.7711,-0.7714,-0.7729,-0.7727,-0.7754,-0.7722,-0.7745,-0.7746,-0.7748,-0.7812,-0.7826,-0.7877,-0.7789,-0.779,-0.7791,0,-0.7706,-0.7713,-0.7744,-0.7745,-0.7749,-0.7763,-0.7773,-0.7783,-0.7787,-0.7784,-0.7791,-0.7779,-0.7799,-0.7775,-0.7805,-0.7784,-0.7793,-0.7794,-0.7795,-0.7799,-0.7773,-0.7821,-0.7892,-0.7902,-0.7801,-0.78,-0.78,0,-0.7749,-0.7765,-0.7787,-0.779,-0.7791,-0.7802,-0.7803,-0.7806,-0.7814,-0.7823,-0.7828,-0.7839,-0.7846,-0.7856,-0.785,-0.7832,-0.7882,-0.7856,-0.7884,-0.7884,-0.7896,-0.7896,-0.7973,-0.7897,-0.7897,-0.7896,-0.7896,0,-0.7797,-0.7818,-0.7807,-0.7821,-0.7845,-0.7834,-0.7859,-0.7858,-0.7862,-0.7878,-0.7862,-0.7877,-0.7866,-0.7882,-0.7877,-0.7905,-0.7907,-0.7908,-0.7907,-0.7911,-0.7912,-0.7919,-0.7916,-0.7898,-0.7898,-0.7898,-0.7897,0,-0.7849,-0.7842,-0.7866,-0.7866,-0.7867,-0.7886,-0.7887,-0.7901,-0.7898,-0.7919,-0.7923,-0.7919,-0.7937,-0.7931,-0.795,-0.7947,-0.7984,-0.7977,-0.7983,-0.7982,-0.8012,-0.8011,-0.8098,-0.8112,-0.8023,-0.8024,-0.8025,0,-0.7882,-0.7898,-0.7901,-0.791,-0.7913,-0.7927,-0.7936,-0.7926,-0.7936,-0.7945,-0.796,-0.7977,-0.799,-0.802,-0.802,-0.8036,-0.8031,-0.8061,-0.8033,-0.8039,-0.8037,-0.8037,-0.8041,-0.8067,-0.8068,-0.8069,-0.807,0,-0.7941,-0.7938,-0.795,-0.7963,-0.7974,-0.7983,-0.7991,-0.8,-0.7992,-0.8005,-0.8023,-0.8034,-0.8055,-0.8073,-0.8089,-0.8092,-0.8082,-0.8078,-0.8086,-0.8092,-0.8097,-0.8099,-0.8002,-0.8077,-0.8076,-0.8075,-0.8075,-0.8075,-0.7986,-0.8002,-0.8008,-0.8023,-0.8029,-0.8038,-0.8054,-0.8054,-0.8069,-0.8086,-0.8079,-0.8102,-0.8111,-0.8131,-0.8137,-0.8156,-0.8145,-0.8155,-0.8159,-0.8162,-0.8168,-0.8092,-0.8159,-0.8158,-0.8158,-0.8158,-0.8158,0,-0.8048,-0.8052,-0.8067,-0.808,-0.8094,-0.8081,-0.8091,-0.8105,-0.8125,-0.8133,-0.8148,-0.8172,-0.8191,-0.8194,-0.8213,-0.8229,-0.8225,-0.8234,-0.8235,-0.8237,-0.8175,-0.8168,-0.8238,-0.8238,-0.8238,-0.8238,-0.8238,-0.8238,-0.8082,-0.8109,-0.8108,-0.8139,-0.8143,-0.8166,-0.8173,-0.8183,-0.8191,-0.8219,-0.8235,-0.8237,-0.8245,-0.8265,-0.8284,-0.8284,-0.8294,-0.8307,-0.8306,-0.8248,-0.824,-0.8233,-0.8227,-0.8308,-0.8308,-0.8367,-0.8368,-0.8368]}]]